Year,Month,Day,Hour,Minute,Value (Times are PST for temperature in C)
2008,06,23,00,00,9.70
2008,06,23,00,01,9.70
2008,06,23,00,02,9.60
2008,06,23,00,03,9.60
2008,06,23,00,04,9.60
2008,06,23,00,05,9.50
2008,06,23,00,06,9.40
2008,06,23,00,07,9.40
2008,06,23,00,08,9.30
2008,06,23,00,09,9.30
2008,06,23,00,10,9.20
2008,06,23,00,11,9.20
2008,06,23,00,12,9.20
2008,06,23,00,13,9.10
2008,06,23,01,02,8.10
2008,06,23,01,03,8.10
2008,06,23,01,04,8.00
2008,06,23,01,05,8.00
2008,06,23,01,06,7.90
2008,06,23,01,07,7.90
2008,06,23,01,08,7.90
2008,06,23,01,09,7.80
2008,06,23,01,10,7.80
2008,06,23,01,11,7.80
2008,06,23,01,12,7.70
2008,06,23,01,13,7.70
2008,06,23,01,14,7.60
2008,06,23,01,15,7.60
2008,06,23,01,16,7.60
2008,06,23,01,17,7.50
2008,06,23,01,18,7.50
2008,06,23,01,19,7.50
2008,06,23,01,20,7.40
2008,06,23,01,21,7.40
2008,06,23,01,22,7.40
2008,06,23,01,23,7.40
2008,06,23,01,24,7.40
2008,06,23,01,25,7.40
2008,06,23,01,26,7.50
2008,06,23,01,27,7.50
2008,06,23,01,28,7.50
2008,06,23,01,29,7.50
2008,06,23,01,30,7.50
2008,06,23,01,31,7.50
2008,06,23,01,32,7.50
2008,06,23,01,33,7.60
2008,06,23,01,34,7.60
2008,06,23,01,35,7.70
2008,06,23,01,36,7.70
2008,06,23,01,37,7.70
2008,06,23,01,38,7.80
2008,06,23,01,39,7.80
2008,06,23,01,40,7.80
2008,06,23,01,41,7.80
2008,06,23,01,42,7.80
2008,06,23,01,43,7.70
2008,06,23,01,44,7.70
2008,06,23,01,45,7.70
2008,06,23,01,46,7.60
2008,06,23,01,47,7.60
2008,06,23,01,48,7.60
2008,06,23,01,49,7.50
2008,06,23,01,50,7.50
2008,06,23,01,51,7.50
2008,06,23,01,52,7.40
2008,06,23,01,53,7.40
2008,06,23,01,54,7.30
2008,06,23,01,55,7.30
2008,06,23,01,56,7.30
2008,06,23,01,57,7.20
2008,06,23,01,58,7.20
2008,06,23,01,59,7.20
2008,06,23,02,00,7.20
2008,06,23,02,01,7.10
2008,06,23,02,02,7.10
2008,06,23,02,03,7.10
2008,06,23,02,04,7.00
2008,06,23,02,05,7.00
2008,06,23,02,06,7.00
2008,06,23,02,07,6.90
2008,06,23,02,08,6.90
2008,06,23,02,09,6.80
2008,06,23,02,10,6.80
2008,06,23,02,11,6.80
2008,06,23,02,12,6.80
2008,06,23,02,13,6.70
2008,06,23,02,14,6.70
2008,06,23,02,15,6.70
2008,06,23,02,16,6.60
2008,06,23,02,17,6.60
2008,06,23,02,18,6.60
2008,06,23,02,19,6.50
2008,06,23,02,20,6.50
2008,06,23,02,21,6.50
2008,06,23,02,22,6.40
2008,06,23,02,23,6.40
2008,06,23,02,24,6.40
2008,06,23,02,25,6.30
2008,06,23,02,26,6.30
2008,06,23,02,27,6.30
2008,06,23,02,28,6.30
2008,06,23,02,29,6.30
2008,06,23,02,30,6.30
2008,06,23,02,31,6.20
2008,06,23,02,32,6.20
2008,06,23,02,33,6.20
2008,06,23,02,34,6.20
2008,06,23,02,35,6.20
2008,06,23,02,36,6.10
2008,06,23,02,37,6.10
2008,06,23,02,38,6.10
2008,06,23,02,39,6.10
2008,06,23,02,40,6.10
2008,06,23,02,41,6.10
2008,06,23,02,42,6.10
2008,06,23,02,43,6.10
2008,06,23,02,44,6.10
2008,06,23,02,45,6.10
2008,06,23,02,46,6.00
2008,06,23,02,47,6.10
2008,06,23,02,48,6.00
2008,06,23,02,49,6.00
2008,06,23,02,50,6.00
2008,06,23,02,51,6.00
2008,06,23,02,52,6.00
2008,06,23,02,53,5.90
2008,06,23,02,54,5.90
2008,06,23,02,55,5.90
2008,06,23,02,56,5.90
2008,06,23,02,57,5.90
2008,06,23,02,58,5.90
2008,06,23,02,59,5.90
2008,06,23,03,00,5.80
2008,06,23,03,01,5.80
2008,06,23,03,02,5.80
2008,06,23,03,03,5.80
2008,06,23,03,04,5.80
2008,06,23,03,05,5.70
2008,06,23,03,06,5.70
2008,06,23,03,07,5.70
2008,06,23,03,08,5.70
2008,06,23,03,09,5.60
2008,06,23,03,10,5.60
2008,06,23,03,11,5.60
2008,06,23,03,12,5.60
2008,06,23,03,13,5.50
2008,06,23,03,14,5.50
2008,06,23,03,15,5.50
2008,06,23,03,16,5.40
2008,06,23,03,17,5.40
2008,06,23,03,18,5.40
2008,06,23,03,19,5.40
2008,06,23,03,20,5.30
2008,06,23,03,21,5.30
2008,06,23,03,22,5.30
2008,06,23,03,23,5.20
2008,06,23,03,24,5.20
2008,06,23,03,25,5.20
2008,06,23,03,26,5.20
2008,06,23,03,27,5.20
2008,06,23,03,28,5.20
2008,06,23,03,29,5.20
2008,06,23,03,30,5.20
2008,06,23,03,31,5.20
2008,06,23,03,32,5.20
2008,06,23,03,33,5.20
2008,06,23,03,34,5.10
2008,06,23,03,35,5.10
2008,06,23,03,36,5.10
2008,06,23,03,37,5.10
2008,06,23,03,38,5.10
2008,06,23,03,39,5.10
2008,06,23,03,40,5.10
2008,06,23,03,41,5.00
2008,06,23,03,42,5.00
2008,06,23,03,43,5.00
2008,06,23,03,44,5.00
2008,06,23,03,45,4.90
2008,06,23,03,46,4.90
2008,06,23,03,47,4.90
2008,06,23,03,48,4.80
2008,06,23,03,49,4.80
2008,06,23,03,50,4.80
2008,06,23,03,51,4.80
2008,06,23,03,52,4.80
2008,06,23,03,53,4.80
2008,06,23,03,54,4.80
2008,06,23,03,55,4.80
2008,06,23,03,56,4.80
2008,06,23,03,57,4.80
2008,06,23,03,58,4.80
2008,06,23,03,59,4.80
2008,06,23,04,00,4.80
2008,06,23,04,01,4.80
2008,06,23,04,02,4.80
2008,06,23,04,03,4.80
2008,06,23,04,04,4.70
2008,06,23,04,05,4.70
2008,06,23,04,06,4.70
2008,06,23,04,07,4.70
2008,06,23,04,08,4.70
2008,06,23,04,09,4.70
2008,06,23,04,10,4.70
2008,06,23,04,11,4.70
2008,06,23,04,12,4.70
2008,06,23,04,13,4.70
2008,06,23,04,14,4.70
2008,06,23,04,15,4.70
2008,06,23,04,16,4.70
2008,06,23,04,17,4.70
2008,06,23,04,18,4.70
2008,06,23,04,19,4.70
2008,06,23,04,20,4.70
2008,06,23,04,21,4.70
2008,06,23,04,22,4.70
2008,06,23,04,23,4.70
2008,06,23,04,24,4.70
2008,06,23,04,25,4.70
2008,06,23,04,26,4.70
2008,06,23,04,27,4.70
2008,06,23,04,28,4.70
2008,06,23,04,29,4.70
2008,06,23,04,30,4.70
2008,06,23,04,31,4.60
2008,06,23,04,32,4.60
2008,06,23,04,33,4.60
2008,06,23,04,34,4.60
2008,06,23,04,35,4.60
2008,06,23,04,36,4.60
2008,06,23,04,37,4.60
2008,06,23,04,38,4.60
2008,06,23,04,39,4.60
2008,06,23,04,40,4.60
2008,06,23,04,41,4.60
2008,06,23,04,42,4.60
2008,06,23,04,43,4.60
2008,06,23,04,44,4.50
2008,06,23,04,45,4.50
2008,06,23,04,46,4.50
2008,06,23,04,47,4.50
2008,06,23,04,48,4.40
2008,06,23,04,49,4.40
2008,06,23,04,50,4.40
2008,06,23,04,51,4.40
2008,06,23,04,52,4.30
2008,06,23,04,53,4.30
2008,06,23,04,54,4.30
2008,06,23,04,55,4.30
2008,06,23,04,56,4.20
2008,06,23,04,57,4.20
2008,06,23,04,58,4.20
2008,06,23,04,59,4.20
2008,06,23,05,00,4.20
2008,06,23,05,01,4.20
2008,06,23,05,02,4.20
2008,06,23,05,03,4.10
2008,06,23,05,04,4.10
2008,06,23,05,05,4.10
2008,06,23,05,06,4.10
2008,06,23,05,07,4.10
2008,06,23,05,08,4.10
2008,06,23,05,09,4.10
2008,06,23,05,10,4.20
2008,06,23,05,11,4.20
2008,06,23,05,12,4.20
2008,06,23,05,13,4.20
2008,06,23,05,14,4.20
2008,06,23,05,15,4.20
2008,06,23,05,16,4.20
2008,06,23,05,17,4.20
2008,06,23,05,18,4.20
2008,06,23,05,19,4.20
2008,06,23,05,20,4.20
2008,06,23,05,21,4.20
2008,06,23,05,22,4.20
2008,06,23,05,23,4.20
2008,06,23,05,24,4.20
2008,06,23,05,25,4.20
2008,06,23,05,26,4.20
2008,06,23,05,27,4.20
2008,06,23,05,28,4.20
2008,06,23,05,29,4.20
2008,06,23,05,30,4.10
2008,06,23,05,31,4.10
2008,06,23,05,32,4.10
2008,06,23,05,33,4.10
2008,06,23,05,34,4.00
2008,06,23,05,35,4.00
2008,06,23,05,36,4.00
2008,06,23,05,37,4.00
2008,06,23,05,38,4.00
2008,06,23,05,39,4.00
2008,06,23,05,40,3.90
2008,06,23,05,41,4.00
2008,06,23,05,42,4.00
2008,06,23,05,43,4.00
2008,06,23,05,44,4.00
2008,06,23,05,45,4.00
2008,06,23,05,46,4.10
2008,06,23,05,47,4.10
2008,06,23,05,48,4.10
2008,06,23,05,49,4.20
2008,06,23,05,50,4.20
2008,06,23,05,51,4.20
2008,06,23,05,52,4.20
2008,06,23,05,53,4.20
2008,06,23,05,54,4.30
2008,06,23,05,55,4.30
2008,06,23,05,56,4.30
2008,06,23,05,57,4.30
2008,06,23,05,58,4.30
2008,06,23,05,59,4.30
2008,06,23,06,00,4.30
2008,06,23,06,01,4.30
2008,06,23,06,02,4.30
2008,06,23,06,03,4.30
2008,06,23,06,04,4.30
2008,06,23,06,05,4.30
2008,06,23,06,06,4.40
2008,06,23,06,07,4.40
2008,06,23,06,08,4.40
2008,06,23,06,09,4.40
2008,06,23,06,10,4.40
2008,06,23,06,11,4.40
2008,06,23,06,12,4.40
2008,06,23,06,13,4.40
2008,06,23,06,14,4.40
2008,06,23,06,15,4.50
2008,06,23,06,16,4.50
2008,06,23,06,17,4.50
2008,06,23,06,18,4.50
2008,06,23,06,19,4.60
2008,06,23,06,20,4.60
2008,06,23,06,21,4.60
2008,06,23,06,22,4.60
2008,06,23,06,23,4.60
2008,06,23,06,24,4.70
2008,06,23,06,25,4.70
2008,06,23,06,26,4.70
2008,06,23,06,27,4.70
2008,06,23,06,28,4.70
2008,06,23,06,29,4.80
2008,06,23,06,30,4.80
2008,06,23,06,31,4.80
2008,06,23,06,32,4.80
2008,06,23,06,33,4.90
2008,06,23,06,34,4.90
2008,06,23,06,35,5.00
2008,06,23,06,36,5.00
2008,06,23,06,37,5.10
2008,06,23,06,38,5.10
2008,06,23,06,39,5.20
2008,06,23,06,40,5.30
2008,06,23,06,41,5.30
2008,06,23,06,42,5.40
2008,06,23,06,43,5.50
2008,06,23,06,44,5.50
2008,06,23,06,45,5.60
2008,06,23,06,46,5.70
2008,06,23,06,47,5.80
2008,06,23,06,48,5.90
2008,06,23,06,49,6.00
2008,06,23,06,50,6.10
2008,06,23,06,51,6.20
2008,06,23,06,52,6.30
2008,06,23,06,53,6.40
2008,06,23,06,54,6.50
2008,06,23,06,55,6.60
2008,06,23,06,56,6.70
2008,06,23,06,57,6.80
2008,06,23,06,58,7.00
2008,06,23,06,59,7.10
2008,06,23,07,00,7.20
2008,06,23,07,01,7.30
2008,06,23,07,02,7.50
2008,06,23,07,03,7.60
2008,06,23,07,04,7.70
2008,06,23,07,05,7.80
2008,06,23,07,06,7.90
2008,06,23,07,07,8.00
2008,06,23,07,08,8.10
2008,06,23,07,09,8.20
2008,06,23,07,10,8.30
2008,06,23,07,11,8.50
2008,06,23,07,12,8.60
2008,06,23,07,13,8.70
2008,06,23,07,14,8.80
2008,06,23,07,15,8.90
2008,06,23,07,16,9.10
2008,06,23,07,17,9.20
2008,06,23,07,18,9.30
2008,06,23,07,19,9.30
2008,06,23,07,20,9.50
2008,06,23,07,21,9.50
2008,06,23,07,22,9.60
2008,06,23,07,23,9.60
2008,06,23,07,24,9.70
2008,06,23,07,25,9.70
2008,06,23,07,26,9.80
2008,06,23,07,27,9.80
2008,06,23,07,28,9.90
2008,06,23,07,29,9.90
2008,06,23,07,30,10.00
2008,06,23,07,31,10.00
2008,06,23,07,32,10.10
2008,06,23,07,33,10.20
2008,06,23,07,34,10.30
2008,06,23,07,35,10.30
2008,06,23,07,36,10.40
2008,06,23,07,37,10.40
2008,06,23,07,38,10.50
2008,06,23,07,39,10.60
2008,06,23,07,40,10.60
2008,06,23,07,41,10.70
2008,06,23,07,42,10.80
2008,06,23,07,43,10.90
2008,06,23,07,44,10.90
2008,06,23,07,45,11.00
2008,06,23,07,46,11.10
2008,06,23,07,47,11.10
2008,06,23,07,48,11.20
2008,06,23,07,49,11.20
2008,06,23,07,50,11.30
2008,06,23,07,51,11.40
2008,06,23,07,52,11.40
2008,06,23,07,53,11.50
2008,06,23,07,54,11.70
2008,06,23,07,55,11.80
2008,06,23,07,56,11.80
2008,06,23,07,57,11.90
2008,06,23,07,58,12.00
2008,06,23,07,59,12.10
2008,06,23,08,00,12.10
2008,06,23,08,01,12.20
2008,06,23,08,02,12.20
2008,06,23,08,03,12.20
2008,06,23,08,04,12.30
2008,06,23,08,05,12.30
2008,06,23,08,06,12.30
2008,06,23,08,07,12.30
2008,06,23,08,08,12.30
2008,06,23,08,09,12.30
2008,06,23,08,10,12.30
2008,06,23,08,11,12.30
2008,06,23,08,12,12.30
2008,06,23,08,13,12.40
2008,06,23,08,14,12.40
2008,06,23,08,15,12.50
2008,06,23,08,16,12.50
2008,06,23,08,17,12.60
2008,06,23,08,18,12.60
2008,06,23,08,19,12.70
2008,06,23,08,20,12.70
2008,06,23,08,21,12.70
2008,06,23,08,22,12.70
2008,06,23,08,23,12.70
2008,06,23,08,24,12.70
2008,06,23,08,25,12.70
2008,06,23,08,26,12.70
2008,06,23,08,27,12.70
2008,06,23,08,28,12.70
2008,06,23,08,29,12.70
2008,06,23,08,30,12.70
2008,06,23,08,31,12.80
2008,06,23,08,32,12.80
2008,06,23,08,33,12.90
2008,06,23,08,34,13.00
2008,06,23,08,35,13.00
2008,06,23,08,36,13.10
2008,06,23,08,37,13.20
2008,06,23,08,38,13.30
2008,06,23,08,39,13.40
2008,06,23,08,40,13.50
2008,06,23,08,41,13.60
2008,06,23,08,42,13.80
2008,06,23,08,43,13.90
2008,06,23,08,44,13.90
2008,06,23,08,45,13.90
2008,06,23,08,46,13.80
2008,06,23,08,47,13.80
2008,06,23,08,48,13.80
2008,06,23,08,49,13.80
2008,06,23,08,50,13.80
2008,06,23,08,51,13.80
2008,06,23,08,52,13.80
2008,06,23,08,53,13.90
2008,06,23,08,54,13.90
2008,06,23,08,55,14.00
2008,06,23,08,56,14.00
2008,06,23,08,57,14.10
2008,06,23,08,58,14.10
2008,06,23,08,59,14.20
2008,06,23,09,00,14.30
2008,06,23,09,01,14.30
2008,06,23,09,02,14.40
2008,06,23,09,03,14.50
2008,06,23,09,04,14.60
2008,06,23,09,05,14.60
2008,06,23,09,06,14.70
2008,06,23,09,07,14.80
2008,06,23,09,08,14.80
2008,06,23,09,09,14.90
2008,06,23,09,10,15.00
2008,06,23,09,11,15.00
2008,06,23,09,12,15.00
2008,06,23,09,13,15.00
2008,06,23,09,14,15.00
2008,06,23,09,15,15.20
2008,06,23,09,16,15.30
2008,06,23,09,17,15.30
2008,06,23,09,18,15.30
2008,06,23,09,19,15.40
2008,06,23,09,20,15.40
2008,06,23,09,21,15.40
2008,06,23,09,22,15.40
2008,06,23,09,23,15.40
2008,06,23,09,24,15.30
2008,06,23,09,25,15.30
2008,06,23,09,26,15.30
2008,06,23,09,27,15.30
2008,06,23,09,28,15.30
2008,06,23,09,29,15.30
2008,06,23,09,30,15.40
2008,06,23,09,31,15.30
2008,06,23,09,32,15.30
2008,06,23,09,33,15.20
2008,06,23,09,34,15.20
2008,06,23,09,35,15.20
2008,06,23,09,36,15.20
2008,06,23,09,37,15.20
2008,06,23,09,38,15.10
2008,06,23,09,39,15.10
2008,06,23,09,40,15.00
2008,06,23,09,41,15.00
2008,06,23,09,42,15.00
2008,06,23,09,43,15.00
2008,06,23,09,44,15.00
2008,06,23,09,45,15.00
2008,06,23,09,46,15.00
2008,06,23,09,47,15.00
2008,06,23,09,48,15.00
2008,06,23,09,49,15.00
2008,06,23,09,50,15.00
2008,06,23,09,51,15.00
2008,06,23,09,52,15.00
2008,06,23,09,53,15.00
2008,06,23,09,54,15.00
2008,06,23,09,55,15.00
2008,06,23,09,56,15.00
2008,06,23,09,57,15.00
2008,06,23,09,58,15.10
2008,06,23,09,59,15.20
2008,06,23,10,00,15.20
2008,06,23,10,01,15.20
2008,06,23,10,02,15.10
2008,06,23,10,03,15.00
2008,06,23,10,04,15.00
2008,06,23,10,05,15.00
2008,06,23,10,06,15.00
2008,06,23,10,07,15.00
2008,06,23,10,08,15.00
2008,06,23,10,09,15.00
2008,06,23,10,10,15.00
2008,06,23,10,11,15.00
2008,06,23,10,12,15.00
2008,06,23,10,13,15.00
2008,06,23,10,14,15.00
2008,06,23,10,15,15.00
2008,06,23,10,16,15.00
2008,06,23,10,17,15.10
2008,06,23,10,18,15.20
2008,06,23,10,19,15.20
2008,06,23,10,20,15.20
2008,06,23,10,21,15.30
2008,06,23,10,22,15.30
2008,06,23,10,23,15.40
2008,06,23,10,24,15.40
2008,06,23,10,25,15.40
2008,06,23,10,26,15.40
2008,06,23,10,27,15.40
2008,06,23,10,28,15.40
2008,06,23,10,29,15.40
2008,06,23,10,30,15.40
2008,06,23,10,31,15.30
2008,06,23,10,32,15.30
2008,06,23,10,33,15.30
2008,06,23,10,34,15.30
2008,06,23,10,35,15.30
2008,06,23,10,36,15.30
2008,06,23,10,37,15.30
2008,06,23,10,38,15.30
2008,06,23,10,39,15.30
2008,06,23,10,40,15.30
2008,06,23,10,41,15.30
2008,06,23,10,42,15.20
2008,06,23,10,43,15.10
2008,06,23,10,44,15.00
2008,06,23,10,45,15.00
2008,06,23,10,46,15.00
2008,06,23,10,47,15.00
2008,06,23,10,48,15.00
2008,06,23,10,49,15.10
2008,06,23,10,50,15.20
2008,06,23,10,51,15.40
2008,06,23,10,52,15.40
2008,06,23,10,53,15.50
2008,06,23,10,54,15.60
2008,06,23,10,55,15.70
2008,06,23,10,56,15.80
2008,06,23,10,57,15.80
2008,06,23,10,58,15.80
2008,06,23,10,59,15.90
2008,06,23,11,00,15.90
2008,06,23,11,01,15.90
2008,06,23,11,02,15.90
2008,06,23,11,03,15.80
2008,06,23,11,04,15.70
2008,06,23,11,05,15.70
2008,06,23,11,06,15.60
2008,06,23,11,07,15.50
2008,06,23,11,08,15.50
2008,06,23,11,09,15.40
2008,06,23,11,10,15.40
2008,06,23,11,11,15.30
2008,06,23,11,12,15.20
2008,06,23,11,13,15.10
2008,06,23,11,14,15.00
2008,06,23,11,15,15.00
2008,06,23,11,16,14.80
2008,06,23,11,17,14.70
2008,06,23,11,18,14.70
2008,06,23,11,19,14.70
2008,06,23,11,20,14.70
2008,06,23,11,21,14.60
2008,06,23,11,22,14.70
2008,06,23,11,23,14.70
2008,06,23,11,24,14.70
2008,06,23,11,25,14.70
2008,06,23,11,26,14.70
2008,06,23,11,27,14.70
2008,06,23,11,28,14.80
2008,06,23,11,29,14.80
2008,06,23,11,30,14.90
2008,06,23,11,31,14.90
2008,06,23,11,32,14.90
2008,06,23,11,33,14.90
2008,06,23,11,34,15.00
2008,06,23,11,35,15.00
2008,06,23,11,36,15.00
2008,06,23,11,37,15.00
2008,06,23,11,38,15.00
2008,06,23,11,39,14.90
2008,06,23,11,40,14.80
2008,06,23,11,41,14.70
2008,06,23,11,42,14.70
2008,06,23,11,43,14.70
2008,06,23,11,44,14.70
2008,06,23,11,45,14.80
2008,06,23,11,46,14.90
2008,06,23,11,47,15.00
2008,06,23,11,48,15.00
2008,06,23,11,49,15.00
2008,06,23,11,50,15.00
2008,06,23,11,51,15.00
2008,06,23,11,52,15.00
2008,06,23,11,53,15.00
2008,06,23,11,54,15.00
2008,06,23,11,55,15.00
2008,06,23,11,56,15.00
2008,06,23,11,57,15.10
2008,06,23,11,58,15.20
2008,06,23,11,59,15.30
2008,06,23,12,00,15.40
2008,06,23,12,01,15.50
2008,06,23,12,02,15.60
2008,06,23,12,03,15.60
2008,06,23,12,04,15.60
2008,06,23,12,05,15.60
2008,06,23,12,06,15.60
2008,06,23,12,07,15.60
2008,06,23,12,08,15.70
2008,06,23,12,09,15.60
2008,06,23,12,10,15.60
2008,06,23,12,11,15.60
2008,06,23,12,12,15.60
2008,06,23,12,13,15.60
2008,06,23,12,14,15.60
2008,06,23,12,15,15.60
2008,06,23,12,16,15.50
2008,06,23,12,17,15.60
2008,06,23,12,18,15.60
2008,06,23,12,19,15.60
2008,06,23,12,20,15.60
2008,06,23,12,21,15.60
2008,06,23,12,22,15.60
2008,06,23,12,23,15.60
2008,06,23,12,24,15.60
2008,06,23,12,25,15.50
2008,06,23,12,26,15.50
2008,06,23,12,27,15.50
2008,06,23,12,28,15.50
2008,06,23,12,29,15.50
2008,06,23,12,30,15.50
2008,06,23,12,31,15.60
2008,06,23,12,32,15.60
2008,06,23,12,33,15.60
2008,06,23,12,34,15.70
2008,06,23,12,35,15.70
2008,06,23,12,36,15.80
2008,06,23,12,37,15.80
2008,06,23,12,38,15.80
2008,06,23,12,39,15.80
2008,06,23,12,40,15.80
2008,06,23,12,41,15.80
2008,06,23,12,42,15.70
2008,06,23,12,43,15.60
2008,06,23,12,44,15.60
2008,06,23,12,45,15.60
2008,06,23,12,46,15.60
2008,06,23,12,47,15.50
2008,06,23,12,48,15.40
2008,06,23,12,49,15.40
2008,06,23,12,50,15.30
2008,06,23,12,51,15.40
2008,06,23,12,52,15.40
2008,06,23,12,53,15.40
2008,06,23,12,54,15.40
2008,06,23,12,55,15.50
2008,06,23,12,56,15.50
2008,06,23,12,57,15.60
2008,06,23,12,58,15.70
2008,06,23,12,59,15.80
2008,06,23,13,00,15.80
2008,06,23,13,01,15.80
2008,06,23,13,02,15.90
2008,06,23,13,03,16.00
2008,06,23,13,04,16.10
2008,06,23,13,05,16.10
2008,06,23,13,06,16.20
2008,06,23,13,07,16.20
2008,06,23,13,08,16.30
2008,06,23,13,09,16.20
2008,06,23,13,10,16.10
2008,06,23,13,11,16.10
2008,06,23,13,12,16.10
2008,06,23,13,13,16.10
2008,06,23,13,14,16.10
2008,06,23,13,15,16.20
2008,06,23,13,16,16.30
2008,06,23,13,17,16.30
2008,06,23,13,18,16.20
2008,06,23,13,19,16.20
2008,06,23,13,20,16.10
2008,06,23,13,21,16.10
2008,06,23,13,22,16.10
2008,06,23,13,23,16.10
2008,06,23,13,24,16.10
2008,06,23,13,25,16.10
2008,06,23,13,26,16.10
2008,06,23,13,27,16.10
2008,06,23,13,28,16.10
2008,06,23,13,29,16.10
2008,06,23,13,30,16.10
2008,06,23,13,31,16.20
2008,06,23,13,32,16.20
2008,06,23,13,33,16.20
2008,06,23,13,34,16.20
2008,06,23,13,35,16.20
2008,06,23,13,36,16.30
2008,06,23,13,37,16.40
2008,06,23,13,38,16.50
2008,06,23,13,39,16.60
2008,06,23,13,40,16.70
2008,06,23,13,41,16.90
2008,06,23,13,42,17.00
2008,06,23,13,43,17.10
2008,06,23,13,44,17.10
2008,06,23,13,45,17.10
2008,06,23,13,46,17.10
2008,06,23,13,47,17.00
2008,06,23,13,48,17.00
2008,06,23,13,49,16.90
2008,06,23,13,50,16.90
2008,06,23,13,51,16.90
2008,06,23,13,52,17.10
2008,06,23,13,53,17.10
2008,06,23,13,54,17.20
2008,06,23,13,55,17.20
2008,06,23,13,56,17.20
2008,06,23,13,57,17.30
2008,06,23,13,58,17.20
2008,06,23,13,59,17.20
2008,06,23,14,00,17.20
2008,06,23,14,01,17.20
2008,06,23,14,02,17.20
2008,06,23,14,03,17.30
2008,06,23,14,04,17.30
2008,06,23,14,05,17.30
2008,06,23,14,06,17.30
2008,06,23,14,07,17.30
2008,06,23,14,08,17.30
2008,06,23,14,09,17.30
2008,06,23,14,10,17.40
2008,06,23,14,11,17.40
2008,06,23,14,12,17.50
2008,06,23,14,13,17.50
2008,06,23,14,14,17.50
2008,06,23,14,15,17.40
2008,06,23,14,16,17.50
2008,06,23,14,17,17.60
2008,06,23,14,18,17.50
2008,06,23,14,19,17.50
2008,06,23,14,20,17.60
2008,06,23,14,21,17.60
2008,06,23,14,22,17.50
2008,06,23,14,23,17.50
2008,06,23,14,24,17.60
2008,06,23,14,25,17.60
2008,06,23,14,26,17.60
2008,06,23,14,27,17.60
2008,06,23,14,28,17.60
2008,06,23,14,29,17.50
2008,06,23,14,30,17.40
2008,06,23,14,31,17.30
2008,06,23,14,32,17.30
2008,06,23,14,33,17.40
2008,06,23,14,34,17.40
2008,06,23,14,35,17.50
2008,06,23,14,36,17.50
2008,06,23,14,37,17.60
2008,06,23,14,38,17.60
2008,06,23,14,39,17.70
2008,06,23,14,40,17.60
2008,06,23,14,41,17.60
2008,06,23,14,42,17.50
2008,06,23,14,43,17.40
2008,06,23,14,44,17.40
2008,06,23,14,45,17.50
2008,06,23,14,46,17.60
2008,06,23,14,47,17.60
2008,06,23,14,48,17.70
2008,06,23,14,49,17.70
2008,06,23,14,50,17.80
2008,06,23,14,51,17.80
2008,06,23,14,52,17.90
2008,06,23,14,53,18.00
2008,06,23,14,54,18.10
2008,06,23,14,55,18.10
2008,06,23,14,56,18.00
2008,06,23,14,57,18.00
2008,06,23,14,58,17.90
2008,06,23,14,59,17.90
2008,06,23,15,00,18.00
2008,06,23,15,01,18.10
2008,06,23,15,02,18.10
2008,06,23,15,03,18.10
2008,06,23,15,04,18.10
2008,06,23,15,05,18.20
2008,06,23,15,06,18.20
2008,06,23,15,07,18.30
2008,06,23,15,08,18.30
2008,06,23,15,09,18.30
2008,06,23,15,10,18.40
2008,06,23,15,11,18.40
2008,06,23,15,12,18.40
2008,06,23,15,13,18.30
2008,06,23,15,14,18.30
2008,06,23,15,15,18.40
2008,06,23,15,16,18.40
2008,06,23,15,17,18.40
2008,06,23,15,18,18.50
2008,06,23,15,19,18.40
2008,06,23,15,20,18.40
2008,06,23,15,21,18.40
2008,06,23,15,22,18.50
2008,06,23,15,23,18.40
2008,06,23,15,24,18.40
2008,06,23,15,25,18.40
2008,06,23,15,26,18.30
2008,06,23,15,27,18.30
2008,06,23,15,28,18.40
2008,06,23,15,29,18.50
2008,06,23,15,30,18.50
2008,06,23,15,31,18.60
2008,06,23,15,32,18.60
2008,06,23,15,33,18.60
2008,06,23,15,34,18.70
2008,06,23,15,35,18.80
2008,06,23,15,36,18.60
2008,06,23,15,37,18.60
2008,06,23,15,38,18.60
2008,06,23,15,39,18.60
2008,06,23,15,40,18.50
2008,06,23,15,41,18.50
2008,06,23,15,42,18.30
2008,06,23,15,43,18.30
2008,06,23,15,44,18.50
2008,06,23,15,45,18.60
2008,06,23,15,46,18.80
2008,06,23,15,47,18.80
2008,06,23,15,48,18.90
2008,06,23,15,49,18.90
2008,06,23,15,50,18.90
2008,06,23,15,51,19.00
2008,06,23,15,52,19.00
2008,06,23,15,53,18.90
2008,06,23,15,54,18.80
2008,06,23,15,55,18.70
2008,06,23,15,56,18.70
2008,06,23,15,57,18.70
2008,06,23,15,58,18.70
2008,06,23,15,59,18.70
2008,06,23,16,00,18.70
2008,06,23,16,01,18.60
2008,06,23,16,02,18.40
2008,06,23,16,03,18.30
2008,06,23,16,04,18.20
2008,06,23,16,05,18.00
2008,06,23,16,06,17.80
2008,06,23,16,07,17.70
2008,06,23,16,08,17.60
2008,06,23,16,09,17.60
2008,06,23,16,10,17.60
2008,06,23,16,11,17.50
2008,06,23,16,12,17.50
2008,06,23,16,13,17.50
2008,06,23,16,14,17.50
2008,06,23,16,15,17.40
2008,06,23,16,16,17.40
2008,06,23,16,17,17.50
2008,06,23,16,18,17.50
2008,06,23,16,19,17.40
2008,06,23,16,20,17.40
2008,06,23,16,21,17.40
2008,06,23,16,22,17.50
2008,06,23,16,23,17.60
2008,06,23,16,24,17.60
2008,06,23,16,25,17.60
2008,06,23,16,26,17.60
2008,06,23,16,27,17.60
2008,06,23,16,28,17.60
2008,06,23,16,29,17.60
2008,06,23,16,30,17.60
2008,06,23,16,31,17.60
2008,06,23,16,32,17.50
2008,06,23,16,33,17.50
2008,06,23,16,34,17.40
2008,06,23,16,35,17.40
2008,06,23,16,36,17.40
2008,06,23,16,37,17.40
2008,06,23,16,38,17.40
2008,06,23,16,39,17.40
2008,06,23,16,40,17.40
2008,06,23,16,41,17.50
2008,06,23,16,42,17.60
2008,06,23,16,43,17.70
2008,06,23,16,44,17.70
2008,06,23,16,45,17.70
2008,06,23,16,46,17.80
2008,06,23,16,47,17.90
2008,06,23,16,48,17.90
2008,06,23,16,49,18.10
2008,06,23,16,50,18.10
2008,06,23,16,51,18.10
2008,06,23,16,52,18.00
2008,06,23,16,53,17.90
2008,06,23,16,54,17.80
2008,06,23,16,55,17.90
2008,06,23,16,56,17.90
2008,06,23,16,57,17.80
2008,06,23,16,58,17.80
2008,06,23,16,59,17.90
2008,06,23,17,00,18.00
2008,06,23,17,01,18.10
2008,06,23,17,02,18.10
2008,06,23,17,03,18.10
2008,06,23,17,04,18.10
2008,06,23,17,05,18.10
2008,06,23,17,06,18.10
2008,06,23,17,07,18.10
2008,06,23,17,08,18.20
2008,06,23,17,09,18.20
2008,06,23,17,10,18.10
2008,06,23,17,11,18.10
2008,06,23,17,12,18.10
2008,06,23,17,13,18.20
2008,06,23,17,14,18.20
2008,06,23,17,15,18.20
2008,06,23,17,16,18.30
2008,06,23,17,17,18.40
2008,06,23,17,18,18.40
2008,06,23,17,19,18.30
2008,06,23,17,20,18.40
2008,06,23,17,21,18.40
2008,06,23,17,22,18.40
2008,06,23,17,23,18.30
2008,06,23,17,24,18.20
2008,06,23,17,25,18.10
2008,06,23,17,26,18.10
2008,06,23,17,27,18.10
2008,06,23,17,28,18.00
2008,06,23,17,29,18.00
2008,06,23,17,30,17.90
2008,06,23,17,31,17.90
2008,06,23,17,32,17.90
2008,06,23,17,33,17.90
2008,06,23,17,34,17.90
2008,06,23,17,35,17.90
2008,06,23,17,36,18.00
2008,06,23,17,37,18.10
2008,06,23,17,38,18.10
2008,06,23,17,39,18.20
2008,06,23,17,40,18.30
2008,06,23,17,41,18.40
2008,06,23,17,42,18.40
2008,06,23,17,43,18.50
2008,06,23,17,44,18.60
2008,06,23,17,45,18.60
2008,06,23,17,46,18.60
2008,06,23,17,47,18.60
2008,06,23,17,48,18.70
2008,06,23,17,49,18.70
2008,06,23,17,50,18.70
2008,06,23,17,51,18.70
2008,06,23,17,52,18.70
2008,06,23,17,53,18.60
2008,06,23,17,54,18.60
2008,06,23,17,55,18.60
2008,06,23,17,56,18.60
2008,06,23,17,57,18.60
2008,06,23,17,58,18.60
2008,06,23,17,59,18.60
2008,06,23,18,00,18.60
2008,06,23,18,01,18.50
2008,06,23,18,02,18.40
2008,06,23,18,03,18.40
2008,06,23,18,04,18.40
2008,06,23,18,05,18.40
2008,06,23,18,06,18.40
2008,06,23,18,07,18.50
2008,06,23,18,08,18.50
2008,06,23,18,09,18.50
2008,06,23,18,10,18.60
2008,06,23,18,11,18.70
2008,06,23,18,12,18.70
2008,06,23,18,13,18.70
2008,06,23,18,14,18.70
2008,06,23,18,15,18.70
2008,06,23,18,16,18.70
2008,06,23,18,17,18.70
2008,06,23,18,18,18.60
2008,06,23,18,19,18.60
2008,06,23,18,20,18.60
2008,06,23,18,21,18.50
2008,06,23,18,22,18.50
2008,06,23,18,23,18.50
2008,06,23,18,24,18.50